[[{"header":{"parameterUnit":"m.s-1","parameterCategory":1,"la1":30.2991,"la2":30.254,"lo1":-89.0895,"lo2":-89.0444,"dy":0.0017,"dx":0.0017,"nx":28,"ny":28,"refTime":"2025-09-05T03:00:00:Z","depth":0,"parameterNumber":2,"parameterNumberName":"U-component_of_WINDS"},"data":[0,0,0,0,0,0,0,0,0,0,0,0,0,0,0,0,0,0,0,0,0,0,0,0,0,0,0,0,0,0,0,0,0,0,0,0,0,0,0,0,0,0,0,0,0,0,0,0,0,0,0,0,0,0,0,0,0,0,-1.4835,-1.4834,0,-1.4781,-1.4781,-1.478,-1.4723,-1.4723,-1.4722,-1.4721,-1.4665,-1.4664,-1.4663,0,0,0,0,0,0,0,0,0,0,0,0,0,-1.4887,-1.4886,-1.4835,-1.4834,-1.4833,-1.4781,-1.4781,-1.478,-1.4723,-1.4722,-1.4722,-1.4721,-1.4665,-1.4664,-1.4663,0,0,0,0,0,0,0,0,0,0,0,0,0,-1.4852,-1.4886,-1.4835,-1.4799,-1.4795,-1.4781,-1.478,-1.478,-1.4724,-1.4722,-1.4721,-1.472,-1.4665,-1.4664,-1.4663,-1.468,0,0,-1.4659,-1.4659,0,0,0,0,0,0,0,0,-1.4854,-1.485,-1.4805,-1.4801,-1.4797,-1.4758,-1.4778,-1.4746,-1.4724,-1.4751,-1.4721,-1.472,-1.4696,-1.4693,-1.4685,-1.4677,-1.4675,-1.4659,-1.4659,-1.4658,-1.4658,0,0,0,0,0,0,0,-1.4857,-1.4852,-1.4813,-1.4804,-1.48,-1.4785,-1.4779,-1.4772,-1.4731,-1.4748,-1.4744,-1.4739,-1.4694,-1.4686,-1.4683,-1.4674,-1.4659,-1.4658,-1.4658,-1.4657,-1.4677,-1.4678,0,0,0,0,0,0,-1.4865,-1.4854,-1.4815,-1.4812,-1.4823,-1.4785,-1.4778,-1.4772,-1.4731,-1.4723,-1.474,-1.4736,-1.4689,-1.4685,-1.4681,-1.4698,-1.4658,-1.4657,-1.4656,-1.4676,-1.4678,-1.4679,0,0,0,0,0,0,-1.4866,-1.4862,-1.4817,-1.4832,-1.4825,-1.4786,-1.4779,-1.4771,-1.4763,-1.4724,-1.4717,-1.4739,-1.4688,-1.4683,-1.4681,-1.4696,-1.4657,-1.4656,-1.4675,-1.4677,-1.4678,-1.4733,0,0,0,0,0,0,-1.4868,-1.4862,-1.4868,-1.4833,-1.4825,-1.4818,-1.4779,-1.4771,-1.4762,-1.4757,-1.4722,-1.4715,-1.4687,-1.4683,-1.468,-1.4693,-1.4655,-1.4673,-1.4675,-1.4678,-1.473,-1.4736,-1.4742,0,0,0,0,0,-1.487,-1.4885,-1.4869,-1.4865,-1.4831,-1.4819,-1.4814,-1.4782,-1.4763,-1.4769,-1.4744,-1.4716,-1.4695,-1.4683,-1.4679,-1.4693,-1.4672,-1.4675,-1.4677,-1.4727,-1.4735,-1.4742,0,0,0,0,0,0,-1.4923,-1.488,-1.4861,-1.4866,-1.4847,-1.4809,-1.4815,-1.4791,-1.4776,-1.4772,-1.4732,-1.4724,-1.4727,-1.471,-1.4697,-1.4707,-1.4679,-1.4682,-1.4718,-1.4726,-1.4732,-1.4736,-1.4654,0,0,0,0,0,-1.4936,-1.4929,-1.4892,-1.49,-1.4891,-1.4855,-1.4848,-1.4825,-1.4803,-1.4795,-1.4769,-1.4749,-1.4738,-1.4731,-1.4718,-1.4727,-1.4719,-1.4735,-1.4741,-1.4746,-1.4748,-1.4752,-1.4759,-1.4688,-1.4688,-1.4688,0,0,-1.4961,-1.4937,-1.4935,-1.491,-1.4892,-1.4886,-1.4849,-1.4844,-1.4839,-1.4794,-1.479,-1.4771,-1.4746,-1.475,-1.475,-1.4735,-1.4766,-1.475,-1.4754,-1.4753,-1.4756,-1.4763,-1.4769,-1.469,-1.4689,-1.4689,0,0,-1.5004,-1.4985,-1.499,-1.4973,-1.4947,-1.4924,-1.4925,-1.4892,-1.4878,-1.4874,-1.484,-1.4834,-1.4815,-1.4798,-1.4787,-1.4826,-1.48,-1.4823,-1.4856,-1.486,-1.4866,-1.4871,-1.4885,-1.489,-1.4826,-1.4826,-1.4826,0,-1.5039,-1.5029,-1.4995,-1.4993,-1.4983,-1.4943,-1.4947,-1.4932,-1.4904,-1.4897,-1.4882,-1.4858,-1.4838,-1.4837,-1.4847,-1.484,-1.484,-1.4827,-1.4868,-1.4872,-1.4876,-1.4889,-1.4895,-1.4829,-1.4828,-1.4828,-1.4828,0,-1.5073,-1.5067,-1.5074,-1.5048,-1.5039,-1.504,-1.5006,-1.5001,-1.4979,-1.4957,-1.4954,-1.4929,-1.4911,-1.4909,-1.4887,-1.4906,-1.4898,-1.4876,-1.4847,-1.4887,-1.4898,-1.4903,-1.4833,-1.4832,-1.4831,-1.483,0,0,-1.5147,-1.5104,-1.5107,-1.5095,-1.5064,-1.5058,-1.5058,-1.5041,-1.5038,-1.502,-1.5018,-1.5004,-1.4984,-1.4972,-1.4947,-1.4952,-1.4984,-1.4929,-1.4927,-1.494,-1.5004,-1.5021,-1.5027,-1.4967,-1.4968,-1.4969,-1.5006,0,-1.5185,-1.5182,-1.5152,-1.5158,-1.5152,-1.5114,-1.5114,-1.5095,-1.5075,-1.5067,-1.5044,-1.5035,-1.5009,-1.5002,-1.5004,-1.498,-1.4997,-1.4977,-1.4965,-1.4965,-1.4973,-1.5033,-1.505,-1.5087,-1.501,-1.5011,-1.5012,0,-1.5228,-1.5214,-1.5219,-1.5189,-1.5186,-1.5186,-1.5168,-1.5161,-1.5139,-1.5124,-1.5112,-1.5085,-1.5083,-1.5057,-1.5053,-1.504,-1.5034,-1.5022,-1.5022,-1.5019,-1.4991,-1.5032,-1.5097,-1.5103,-1.5018,-1.5018,-1.5017,0,-1.5282,-1.5264,-1.5265,-1.5256,-1.5221,-1.5222,-1.5207,-1.5184,-1.5176,-1.5161,-1.5156,-1.514,-1.5132,-1.5121,-1.509,-1.5074,-1.509,-1.5061,-1.5078,-1.5079,-1.5082,-1.5082,-1.5148,-1.5079,-1.5079,-1.5079,-1.5079,0,-1.5327,-1.5332,-1.5289,-1.5289,-1.5294,-1.5259,-1.5265,-1.5246,-1.5226,-1.5223,-1.5189,-1.5186,-1.5147,-1.514,-1.5117,-1.5117,-1.5114,-1.5101,-1.5095,-1.5104,-1.5106,-1.5099,-1.5096,-1.508,-1.508,-1.508,-1.5079,0,-1.5388,-1.5359,-1.5358,-1.5325,-1.5317,-1.5322,-1.5294,-1.5293,-1.5271,-1.5267,-1.5264,-1.523,-1.522,-1.5189,-1.5171,-1.5156,-1.5163,-1.5151,-1.5171,-1.5167,-1.5185,-1.5184,-1.5248,-1.5255,-1.5182,-1.5183,-1.5184,0,-1.5418,-1.5421,-1.5389,-1.5385,-1.5372,-1.5365,-1.5357,-1.5324,-1.5317,-1.5293,-1.5295,-1.5283,-1.5271,-1.5257,-1.523,-1.5217,-1.5204,-1.5227,-1.5201,-1.5211,-1.5204,-1.5204,-1.5205,-1.5233,-1.5234,-1.5235,-1.5235,0,-1.5476,-1.5461,-1.5451,-1.5437,-1.5429,-1.5416,-1.5401,-1.5399,-1.5361,-1.5356,-1.5345,-1.5336,-1.5319,-1.5307,-1.5289,-1.5274,-1.5249,-1.5244,-1.5247,-1.5256,-1.5268,-1.5262,-1.5186,-1.5242,-1.5242,-1.5241,-1.5241,-1.524,-1.5522,-1.5523,-1.5501,-1.5491,-1.5477,-1.5464,-1.5462,-1.544,-1.5431,-1.5415,-1.5396,-1.5388,-1.5367,-1.5341,-1.5327,-1.5321,-1.5307,-1.5311,-1.5312,-1.5314,-1.5319,-1.5269,-1.5317,-1.5317,-1.5317,-1.5317,-1.5316,0,-1.5577,-1.5562,-1.5553,-1.5534,-1.5526,-1.5504,-1.5486,-1.5482,-1.5475,-1.5458,-1.5448,-1.5436,-1.5425,-1.5398,-1.5385,-1.5385,-1.5373,-1.5382,-1.5381,-1.5379,-1.5331,-1.533,-1.5392,-1.5392,-1.5392,-1.5392,-1.5392,-1.5392,-1.5606,-1.5607,-1.559,-1.5584,-1.5568,-1.556,-1.5552,-1.554,-1.5526,-1.5515,-1.5506,-1.5489,-1.5468,-1.5453,-1.5441,-1.5434,-1.543,-1.5444,-1.5432,-1.5389,-1.5382,-1.5375,-1.5373,-1.5443,-1.5443,-1.548,-1.548,-1.548]},{"header":{"parameterUnit":"m.s-1","parameterCategory":1,"la1":30.2991,"la2":30.254,"lo1":-89.0895,"lo2":-89.0444,"dy":0.0017,"dx":0.0017,"nx":28,"ny":28,"refTime":"2025-09-05T03:00:00:Z","depth":0,"parameterNumber":3,"parameterNumberName":"V-component_of_WINDS"},"data":[0,0,0,0,0,0,0,0,0,0,0,0,0,0,0,0,0,0,0,0,0,0,0,0,0,0,0,0,0,0,0,0,0,0,0,0,0,0,0,0,0,0,0,0,0,0,0,0,0,0,0,0,0,0,0,0,0,0,2.1627,2.1627,0,2.1592,2.1592,2.1591,2.1585,2.1585,2.1586,2.1586,2.1545,2.1544,2.1543,0,0,0,0,0,0,0,0,0,0,0,0,0,2.1685,2.1684,2.1627,2.1627,2.1626,2.1592,2.1592,2.1591,2.1585,2.1585,2.1586,2.1586,2.1546,2.1544,2.1542,0,0,0,0,0,0,0,0,0,0,0,0,0,2.1655,2.1683,2.1627,2.1619,2.1618,2.1592,2.1592,2.1591,2.1585,2.1585,2.1586,2.1586,2.1546,2.1544,2.1542,2.1521,0,0,2.1536,2.1535,0,0,0,0,0,0,0,0,2.1657,2.1653,2.1621,2.162,2.1618,2.1593,2.1597,2.1567,2.1585,2.1597,2.1586,2.1586,2.1561,2.1557,2.155,2.1519,2.1517,2.1536,2.1535,2.1534,2.1533,0,0,0,0,0,0,0,2.1659,2.1655,2.1613,2.162,2.1619,2.1616,2.1612,2.1591,2.1577,2.1596,2.1596,2.1592,2.156,2.1552,2.1549,2.1516,2.1536,2.1534,2.1533,2.1532,2.1466,2.1465,0,0,0,0,0,0,2.1663,2.1657,2.1614,2.1612,2.1639,2.1615,2.161,2.1601,2.1577,2.1574,2.1592,2.1592,2.1555,2.1551,2.1547,2.152,2.1534,2.1532,2.1531,2.1466,2.1465,2.1465,0,0,0,0,0,0,2.1664,2.1659,2.1616,2.1634,2.1628,2.1613,2.1602,2.16,2.1592,2.1573,2.157,2.1586,2.1555,2.155,2.1528,2.1519,2.1531,2.1529,2.1467,2.1466,2.1465,2.1466,0,0,0,0,0,0,2.1666,2.166,2.1653,2.1634,2.1627,2.1598,2.1602,2.1599,2.1589,2.1589,2.1567,2.1564,2.1555,2.1531,2.1526,2.1516,2.1527,2.1467,2.1466,2.1465,2.1467,2.1465,2.1464,0,0,0,0,0,2.1668,2.1653,2.1652,2.1647,2.1618,2.1597,2.1593,2.1584,2.1588,2.158,2.1568,2.1565,2.1521,2.1528,2.1523,2.1512,2.1468,2.1467,2.1465,2.1467,2.1466,2.1464,0,0,0,0,0,0,2.1669,2.165,2.1649,2.1628,2.1615,2.1596,2.1586,2.1583,2.1567,2.1567,2.1556,2.1551,2.1529,2.1518,2.1527,2.149,2.1494,2.1492,2.1498,2.1496,2.1495,2.1497,2.1526,0,0,0,0,0,2.1667,2.1653,2.1637,2.162,2.1613,2.1601,2.1591,2.1586,2.1571,2.1565,2.1551,2.1535,2.1518,2.1506,2.1489,2.1465,2.146,2.1456,2.1454,2.1453,2.1451,2.1437,2.1435,2.1461,2.1461,2.1461,0,0,2.1662,2.165,2.1642,2.162,2.1609,2.1593,2.1596,2.1579,2.1568,2.1561,2.154,2.153,2.1511,2.1488,2.1477,2.1478,2.1443,2.1452,2.1451,2.1449,2.1436,2.1433,2.1431,2.146,2.146,2.146,0,0,2.1645,2.1636,2.162,2.1609,2.1593,2.1585,2.1581,2.1564,2.1557,2.1536,2.1531,2.1516,2.1486,2.1473,2.1463,2.1442,2.1438,2.1437,2.143,2.1417,2.1415,2.1413,2.1405,2.1402,2.1435,2.1435,2.1435,0,2.1641,2.1619,2.1612,2.1596,2.1586,2.1582,2.1566,2.1555,2.1534,2.1526,2.1529,2.1492,2.1479,2.1453,2.1448,2.144,2.1434,2.1439,2.1416,2.1414,2.1412,2.1404,2.1401,2.1435,2.1435,2.1435,2.1435,0,2.1614,2.1599,2.1588,2.157,2.1558,2.1542,2.1532,2.1521,2.1517,2.1508,2.1486,2.1471,2.1451,2.1444,2.1439,2.1417,2.1418,2.1419,2.1422,2.141,2.1402,2.1399,2.1435,2.1435,2.1435,2.1435,0,0,2.1596,2.1575,2.1571,2.1562,2.1544,2.1532,2.1515,2.1497,2.1488,2.1473,2.1459,2.1434,2.1435,2.1423,2.1416,2.1405,2.1389,2.1406,2.1405,2.1403,2.1363,2.1362,2.1359,2.1387,2.1386,2.1386,2.1364,0,2.1577,2.1549,2.1542,2.1518,2.1503,2.15,2.1485,2.1472,2.1463,2.1449,2.1439,2.1422,2.1424,2.1416,2.1405,2.1393,2.138,2.1395,2.1371,2.1371,2.1376,2.1355,2.1355,2.1335,2.1361,2.1361,2.1361,0,2.155,2.1537,2.1512,2.1496,2.149,2.1477,2.146,2.1447,2.1432,2.1426,2.1414,2.1408,2.139,2.1396,2.1369,2.1379,2.1369,2.1362,2.1361,2.1358,2.1364,2.1351,2.1329,2.1326,2.1356,2.1356,2.1357,0,2.1539,2.1515,2.1496,2.1489,2.1471,2.1462,2.1454,2.1439,2.1429,2.1413,2.1406,2.1389,2.1379,2.1364,2.1354,2.1359,2.1328,2.1333,2.1322,2.1322,2.1315,2.1316,2.1291,2.131,2.131,2.131,2.131,0,2.1518,2.1502,2.1491,2.148,2.1462,2.1454,2.1437,2.1428,2.1415,2.1401,2.1396,2.1383,2.137,2.1355,2.1346,2.1326,2.1321,2.1315,2.1313,2.1315,2.1316,2.1308,2.1309,2.1309,2.1309,2.131,2.131,0,2.1502,2.1494,2.1474,2.1459,2.1455,2.1442,2.1428,2.1417,2.1409,2.1391,2.1386,2.1373,2.1354,2.1343,2.1319,2.1314,2.129,2.1289,2.1296,2.1295,2.1284,2.1285,2.1253,2.1248,2.1271,2.1271,2.1271,0,2.1489,2.1477,2.1461,2.1452,2.1445,2.143,2.142,2.1412,2.1401,2.1383,2.1373,2.1355,2.134,2.1311,2.1298,2.128,2.1277,2.1267,2.1274,2.1277,2.1276,2.1277,2.1275,2.1266,2.1265,2.1265,2.1265,0,2.1466,2.1463,2.145,2.1435,2.1423,2.1411,2.1398,2.1391,2.138,2.1369,2.1351,2.1339,2.1316,2.1298,2.1278,2.1268,2.1264,2.1263,2.126,2.1261,2.1266,2.1263,2.1292,2.1264,2.1264,2.1264,2.1264,2.1264,2.1451,2.144,2.1428,2.1413,2.1403,2.1391,2.138,2.1371,2.1356,2.1338,2.1334,2.1315,2.1299,2.1274,2.1263,2.1247,2.1248,2.1243,2.1242,2.124,2.124,2.1269,2.1244,2.1244,2.1244,2.1244,2.1244,0,2.1427,2.1419,2.1406,2.1389,2.1377,2.1377,2.1363,2.1353,2.1337,2.1324,2.131,2.1289,2.1271,2.1258,2.1239,2.1229,2.1227,2.1224,2.1224,2.1222,2.124,2.1245,2.1226,2.1226,2.1226,2.1226,2.1226,2.1226,2.1413,2.1396,2.1391,2.1368,2.136,2.1342,2.1334,2.1323,2.1313,2.1291,2.1277,2.1269,2.1255,2.1236,2.1219,2.1215,2.1208,2.1206,2.1202,2.1219,2.1221,2.1222,2.1227,2.1205,2.1205,2.1185,2.1185,2.1185]}]]